Regional Weather Roundup
Issued by NWS

Home | Current Version | Previous Version | Text Only | Print | Product List | Glossary On
Versions: 1 2 3 4 5 6 7 8 9 10 11 12 13 14 15 16 17 18 19 20 21 22 23 24 25 26 27 28 29 30 31 32 33 34 35 36 37 38 39 40 41 42 43 44 45 46 47 48 49 50
000
ASUS46 KLOX 020713
RWRCA

SOUTHERN CALIFORNIA WEATHER ROUNDUP
NATIONAL WEATHER SERVICE OXNARD CALIFORNIA
1200 AM PDT WED SEP 02 2015

NOTE: "FAIR" INDICATES FEW OR NO CLOUDS BELOW 12,000 FEET WITH NO
SIGNIFICANT WEATHER AND/OR OBSTRUCTIONS TO VISIBILITY.

  -  STATIONS PRECEEDED BY AN ASTERISK (*) ARE NOT NWS OR FAA
     STATIONS AND ARE NOT SUBJECT TO NWS AND FAA QUALITY CONTROL.

CAZ041-042-087-020800-
LA AND ORANGE COUNTY COASTAL AREAS


CITY           SKY/WX    TMP DP  RH WIND       PRES   REMARKS
L.A. DOWNTOWN  CLOUDY    70  61  73 CALM      29.95R
L.A. AIRPORT   MOCLDY    69  62  78 CALM      29.96R
LONG BEACH     CLOUDY    71  62  73 SE5       29.95S

CITY           SKY/WX    TMP DP  RH WIND       PRES   REMARKS
AVALON           N/A     68 N/A N/A S6          N/A
FULLERTON      CLOUDY    71  61  70 SE6       29.95R
*GETTY CENTER    N/A    N/A N/A N/A SW6         N/A
HAWTHORNE      CLOUDY    70  62  76 SW3       29.96R
*LOS ALAMITOS  CLOUDY    70  64  80 S6        29.95S
*REDONDO BEACH   N/A     69  62  78 CALM      29.96S
SANTA ANA      CLOUDY    69  61  75 SE3       29.96R
STA MONICA APT CLOUDY    70  63  78 S6        29.96R
*UCLA            N/A     68  61  77 S3        29.94S

$$

CAZ547-548-048-020800-
LA COUNTY VALLEYS AND INLAND EMPIRE


CITY           SKY/WX    TMP DP  RH WIND       PRES   REMARKS
BURBANK        MOCLDY    69  61  75 S6        29.97R
VAN NUYS       CLOUDY    66  61  84 S6        29.97R

CITY           SKY/WX    TMP DP  RH WIND       PRES   REMARKS
CORONA AIRPORT MOSUNNY   66  60  81 CALM      29.97R
*CHATSWORTH      N/A     67  61  81 E2        29.96R
CHINO          MOCLDY    68  60  75 SW6       29.98R
*CLAREMONT       N/A     63  61  92 CALM        N/A
MARCH AFB      MOCLDY    65  60  82 W1        29.98S
*NORTHRIDGE      N/A     68  59  73 SE2         N/A
ONTARIO        MOCLDY    67  60  78 SW6       29.97R
*PASADENA        N/A     68  64  88 E1          N/A
RIVERSIDE      PTCLDY    67  59  75 W3        29.97R
SAN BERNARDINO NOT AVBL
*SAN GABRIEL     N/A     70  63  77 S3        30.02S
*WHITEMAN AP   NOT AVBL
*WOODLAND HILL   N/A     66  61  82 SE3         N/A

$$

CAZ054-055-020800-
LA AND SAN BERNARDINO COUNTY MOUNTAINS


CITY           SKY/WX    TMP DP  RH WIND       PRES   REMARKS
*ACTON           N/A      0  -3  85 CALM        N/A
*BIG BEAR AIRP PTSUNNY   52  32  46 CALM      30.23S
*CHILAO          N/A     62  44  52 SE15        N/A
SANDBERG       MOCLDY    62  47  57 W8        30.09F
*WARM SPRINGS    N/A     63  44  49 SW7         N/A

$$

CAZ028-029-059-060-099-020800-
ANTELOPE VALLEY AND SURROUNDING AREAS


CITY           SKY/WX    TMP DP  RH WIND       PRES   REMARKS
LANCASTER      PTCLDY    72  39  30 W12       29.97S
PALMDALE       PTCLDY    72  46  39 W18       29.96R
*POPPY PARK      N/A     70  29  22 W7G18       N/A

CITY           SKY/WX    TMP DP  RH WIND       PRES   REMARKS
29 PALMS       MOCLDY    82  52  35 N3        29.97R
BARSTOW/DAGGET MOCLDY   N/A N/A N/A W14       29.92R
BISHOP         PTCLDY    72  21  14 SW7       29.97R
CHINA LAKE     MOCLDY    79  36  21 S13       29.89R
EDWARDS AFB    PTCLDY    73  29  19 SW8       29.93R
MOJAVE         CLEAR     75  23  14 W10       29.97R
NEEDLES        PTCLDY    94  53  25 SW7       29.82R HX  91
VICTORVILLE    PTCLDY    68  54  60 CALM      29.99R

$$

CAZ039-040-020800-
VENTURA AND SANTA BARBARA COUNTY COAST


CITY           SKY/WX    TMP DP  RH WIND       PRES   REMARKS
CAMARILLO      MOCLDY    69  60  73 NW5       29.95R
NWS OXNARD       N/A     68  61  78 CALM      29.94S
OXNARD AIRPORT CLOUDY    68  61  78 W3        29.95R
*POINT MUGU    MOCLDY    68  61  78 W3        29.95R
SBA APT/GOLETA MOCLDY    66  60  81 CALM      29.95R
*SANTA BARBARA   N/A     69  60  73 CALM      30.02R
*VENTURA         N/A     67  60  79 CALM      29.56S

$$

CAZ044-045-020800-
VENTURA COUNTY VALLEYS


CITY           SKY/WX    TMP DP  RH WIND       PRES   REMARKS
*SIMI VALLEY     N/A     65  61  88 CALM      29.90S
*OJAI            N/A     63  59  86 CALM      29.89S
*FILLMORE        N/A     66  61  83 SW2       29.86R

$$

CAZ053-020800-
VENTURA COUNTY MOUNTAINS


CITY           SKY/WX    TMP DP  RH WIND       PRES   REMARKS
*LOCKWOOD VLY    N/A     52  19  28 CALM        N/A
*ROSE VALLEY     N/A     55  48  76 MISG        N/A

$$

CAZ034-035-036-020800-
CENTRAL COAST AND SANTA YNEZ VALLEY


CITY           SKY/WX    TMP DP  RH WIND       PRES   REMARKS
SAN LUIS OBISP MOCLDY    62  56  80 N6        29.96R
SANTA MARIA    PTCLDY    61  57  87 S3        29.96S

CITY           SKY/WX    TMP DP  RH WIND       PRES   REMARKS
*CAL POLY SLO    N/A     57  55  94 CALM        N/A
*LOMPOC        PTCLDY    59  52  77 CALM      29.97S
*PISMO BEACH     N/A     61  57  87 NE3       29.96S
*SANTA YNEZ    FAIR      59  54  82 SW5       29.97R

$$

CAZ037-038-051-020800-
SAN LUIS OBISPO COUNTY INTERIOR AND CUYAMA VALLEY


CITY           SKY/WX    TMP DP  RH WIND       PRES   REMARKS
*CUYAMA          N/A     62  53  72 W3        29.87R
PASO ROBLES    CLEAR     61  55  81 W9        29.95S

$$

CAZ032-033-061-020800-
SOUTHERN DESERTS


CITY           SKY/WX    TMP DP  RH WIND       PRES   REMARKS
BLYTHE         CLEAR     89  55  31 S8        29.81R
IMPERIAL       CLEAR     88  62  41 E3        29.78R
PALM SPRINGS   PTCLDY    86  54  33 NW12      29.83R
THERMAL        PTCLDY    87  53  31 N8        29.77R

$$

ELSEWHERE ACROSS THE WESTERN UNITED STATES AND MEXICO


CITY           SKY/WX    TMP DP  RH WIND       PRES   REMARKS
DEATH VALLEY,    N/A     96  28   9 SE2         N/A  HX  90
DENVER, CO     MOCLDY    69  45  41 S12       30.10R
GRAND CANYON,  CLEAR     54  50  86 CALM      30.29R
HONOLULU, HI   PTCLDY    82  75  78 N8        29.84R
KAHULUI, MAUI  CLEAR     81  73  78 S7        29.84R
LAKE TAHOE, CA CLEAR     54  36  50 CALM      30.13F
LAS VEGAS, NV  PTCLDY    89  53  29 S6        29.85S
MAMMOTH LAKES, FAIR      54  27  35 SW6       30.20S
MEXICO CITY, M LGT RAIN  59  55  88 W9        30.38
PHOENIX, AZ    MOCLDY    90  65  43 SW3       29.87R HX  92
PORTLAND, OR   CLOUDY    59  57  93 CALM      29.86S
RENO, NV       PTCLDY    70  36  28 CALM      29.99S
SALT LAKE CITY PTCLDY    80  41  24 S21G31    29.92S
SAN DIEGO, CA  CLOUDY    70  60  70 SW6       29.98S
SAN FRANCISCO, MOCLDY    63  55  75 W9G18     29.93S
SAN JOSE, CA   PTCLDY    63  55  75 NE5       29.94R
SEATTLE, WA    CLOUDY    59  54  83 S10       29.81S
TIJUANA, MEX   CLOUDY    68  57  68 CALM      29.98S

$$

STATION/POSITION TIME  TEMP    WIND        PRES    VSBY  WAVE
                       AIR SEA DIR/SP/G                  HT/PER
                 (UTC) (F)     (DEG/KT/KT) (MB)    (MI)  (FT/S)
POINT ARGUELLO B NOT AVBL
WEST SANTA BARBA 0650   64 69  320/ 16/ 19 1013.0R         7/11
POINT CONCEPTION NOT AVBL
EAST SANTA BARBA 0700   65 66  220/ 12/ 14 1014.3R
SANTA MONICA BAY 0650   68 71  210/  6/  8 1014.1R         4/12



USA.gov is the U.S. government's official web portal to all federal, state and local government web resources and services.